,,PressureMeas_1m,,PRMeasQMR101_1,,RHStat155_1m_1,,SRMeasQMS101R_1m,,TAStat155_1m_1,,GenWind_1,,GenWind_1,
2018-07-08, 00:00:07,VALID,916.328,VALID,0.0,VALID,98.86,VALID,-0.013,VALID,19.134,VALID,42.0,VALID,0.33,
2018-07-08, 00:01:07,VALID,916.32,VALID,0.0,VALID,98.822,VALID,0.0,VALID,19.125,VALID,39.0,VALID,0.341,
2018-07-08, 00:02:07,VALID,916.334,VALID,0.0,VALID,98.776,VALID,0.003,VALID,19.087,VALID,33.0,VALID,0.217,
2018-07-08, 00:03:07,VALID,916.341,VALID,0.0,VALID,98.793,VALID,0.004,VALID,19.076,VALID,20.0,VALID,0.001,
2018-07-08, 00:04:07,VALID,916.357,VALID,0.0,VALID,98.807,VALID,-0.007,VALID,19.082,VALID,20.0,VALID,0.0,
2018-07-08, 00:05:07,VALID,916.37,VALID,0.0,VALID,98.863,VALID,-0.031,VALID,19.153,VALID,20.0,VALID,0.0,
2018-07-08, 00:06:07,VALID,916.372,VALID,0.0,VALID,98.888,VALID,-0.02,VALID,19.195,VALID,20.0,VALID,0.0,
2018-07-08, 00:07:07,VALID,916.355,VALID,0.0,VALID,98.912,VALID,-0.034,VALID,19.256,VALID,20.0,VALID,0.0,
2018-07-08, 00:08:07,VALID,916.346,VALID,0.0,VALID,98.919,VALID,-0.021,VALID,19.315,VALID,20.0,VALID,0.0,
2018-07-08, 00:09:07,VALID,916.339,VALID,0.0,VALID,98.95,VALID,-0.015,VALID,19.354,VALID,20.0,VALID,0.0,
2018-07-08, 00:10:07,VALID,916.303,VALID,0.0,VALID,98.948,VALID,-0.028,VALID,19.344,VALID,31.0,VALID,0.0,
2018-07-08, 00:11:07,VALID,916.28,VALID,0.0,VALID,98.905,VALID,-0.003,VALID,19.28,VALID,126.0,VALID,0.014,
2018-07-08, 00:12:07,VALID,916.269,VALID,0.0,VALID,98.812,VALID,-0.016,VALID,19.164,VALID,126.0,VALID,0.17,
2018-07-08, 00:13:07,VALID,916.25,VALID,0.0,VALID,98.792,VALID,-0.026,VALID,19.095,VALID,126.0,VALID,0.28,
2018-07-08, 00:14:07,VALID,916.244,VALID,0.0,VALID,98.812,VALID,-0.02,VALID,19.063,VALID,126.0,VALID,0.091,
2018-07-08, 00:15:07,VALID,916.248,VALID,0.0,VALID,98.585,VALID,-0.024,VALID,18.867,VALID,78.0,VALID,0.204,
2018-07-08, 00:16:06,VALID,916.252,VALID,0.0,VALID,98.69,VALID,-0.02,VALID,18.81,VALID,40.0,VALID,0.351,
2018-07-08, 00:17:06,VALID,916.247,VALID,0.0,VALID,98.795,VALID,-0.034,VALID,18.876,VALID,54.0,VALID,0.455,
2018-07-08, 00:18:06,VALID,916.234,VALID,0.0,VALID,99.035,VALID,-0.033,VALID,19.124,VALID,83.0,VALID,0.589,
2018-07-08, 00:19:06,VALID,916.214,VALID,0.0,VALID,99.019,VALID,-0.029,VALID,19.235,VALID,95.0,VALID,0.816,
2018-07-08, 00:20:06,VALID,916.218,VALID,0.0,VALID,98.95,VALID,0.008,VALID,19.206,VALID,91.0,VALID,0.948,
2018-07-08, 00:21:06,VALID,916.209,VALID,0.0,VALID,98.803,VALID,0.032,VALID,19.057,VALID,80.0,VALID,0.98,
2018-07-08, 00:22:06,VALID,916.193,VALID,0.0,VALID,98.912,VALID,0.034,VALID,19.087,VALID,77.0,VALID,1.019,
2018-07-08, 00:23:06,VALID,916.19,VALID,0.0,VALID,99.026,VALID,0.033,VALID,19.234,VALID,88.0,VALID,1.008,
2018-07-08, 00:24:06,VALID,916.183,VALID,0.0,VALID,99.034,VALID,0.033,VALID,19.32,VALID,89.0,VALID,1.182,
2018-07-08, 00:25:06,VALID,916.171,VALID,0.0,VALID,99.018,VALID,0.066,VALID,19.361,VALID,90.0,VALID,1.211,
2018-07-08, 00:26:06,VALID,916.175,VALID,0.0,VALID,99.018,VALID,0.029,VALID,19.389,VALID,93.0,VALID,1.223,
2018-07-08, 00:27:06,VALID,916.168,VALID,0.0,VALID,98.981,VALID,0.033,VALID,19.346,VALID,94.0,VALID,1.19,
2018-07-08, 00:28:06,VALID,916.159,VALID,0.0,VALID,98.962,VALID,0.055,VALID,19.314,VALID,92.0,VALID,1.145,
2018-07-08, 00:29:06,VALID,916.156,VALID,0.0,VALID,98.963,VALID,0.036,VALID,19.293,VALID,92.0,VALID,1.07,
2018-07-08, 00:30:06,VALID,916.152,VALID,0.0,VALID,99.003,VALID,0.041,VALID,19.367,VALID,89.0,VALID,0.817,
2018-07-08, 00:31:06,VALID,916.156,VALID,0.0,VALID,98.984,VALID,0.021,VALID,19.385,VALID,93.0,VALID,0.575,
2018-07-08, 00:32:06,VALID,916.165,VALID,0.0,VALID,98.913,VALID,0.016,VALID,19.323,VALID,102.0,VALID,0.519,
2018-07-08, 00:33:06,VALID,916.18,VALID,0.0,VALID,98.86,VALID,0.04,VALID,19.269,VALID,107.0,VALID,0.418,
2018-07-08, 00:34:06,VALID,916.176,VALID,0.0,VALID,98.86,VALID,0.044,VALID,19.254,VALID,114.0,VALID,0.51,
2018-07-08, 00:35:06,VALID,916.187,VALID,0.0,VALID,98.839,VALID,0.007,VALID,19.227,VALID,114.0,VALID,0.29,
2018-07-08, 00:36:06,VALID,916.194,VALID,0.0,VALID,98.804,VALID,0.017,VALID,19.172,VALID,102.0,VALID,0.06,
2018-07-08, 00:37:06,VALID,916.21,VALID,0.0,VALID,98.544,VALID,-0.004,VALID,18.963,VALID,96.0,VALID,0.0,
2018-07-08, 00:38:06,VALID,916.212,VALID,0.0,VALID,98.668,VALID,-0.002,VALID,18.954,VALID,96.0,VALID,0.0,
2018-07-08, 00:39:06,VALID,916.206,VALID,0.0,VALID,98.815,VALID,0.001,VALID,19.041,VALID,96.0,VALID,0.0,
2018-07-08, 00:40:06,VALID,916.202,VALID,0.0,VALID,98.804,VALID,0.002,VALID,19.141,VALID,96.0,VALID,0.003,
2018-07-08, 00:41:06,VALID,916.206,VALID,0.0,VALID,98.878,VALID,-0.002,VALID,19.242,VALID,99.0,VALID,0.016,
2018-07-08, 00:42:06,VALID,916.203,VALID,0.0,VALID,98.885,VALID,-0.002,VALID,19.297,VALID,182.0,VALID,0.099,
2018-07-08, 00:43:06,VALID,916.207,VALID,0.0,VALID,98.889,VALID,0.012,VALID,19.305,VALID,192.0,VALID,0.238,
2018-07-08, 00:44:06,VALID,916.228,VALID,0.0,VALID,98.853,VALID,-0.021,VALID,19.273,VALID,193.0,VALID,0.254,
2018-07-08, 00:45:06,VALID,916.247,VALID,0.0,VALID,98.843,VALID,0.002,VALID,19.239,VALID,183.0,VALID,0.339,
2018-07-08, 00:46:06,VALID,916.263,VALID,0.0,VALID,98.743,VALID,0.007,VALID,19.1,VALID,166.0,VALID,0.282,
2018-07-08, 00:47:06,VALID,916.272,VALID,0.0,VALID,98.685,VALID,-0.005,VALID,18.998,VALID,159.0,VALID,0.059,
2018-07-08, 00:48:06,VALID,916.271,VALID,0.0,VALID,98.728,VALID,-0.007,VALID,19.016,VALID,162.0,VALID,0.007,
2018-07-08, 00:49:06,VALID,916.27,VALID,0.0,VALID,98.771,VALID,0.004,VALID,19.04,VALID,156.0,VALID,0.077,
2018-07-08, 00:50:06,VALID,916.26,VALID,0.0,VALID,98.709,VALID,0.001,VALID,18.971,VALID,142.0,VALID,0.264,
2018-07-08, 00:51:06,VALID,916.258,VALID,0.0,VALID,98.742,VALID,-0.013,VALID,18.968,VALID,146.0,VALID,0.189,
2018-07-08, 00:52:06,VALID,916.243,VALID,0.0,VALID,98.812,VALID,-0.034,VALID,19.032,VALID,142.0,VALID,0.311,
2018-07-08, 00:53:06,VALID,916.245,VALID,0.0,VALID,98.904,VALID,-0.022,VALID,19.165,VALID,127.0,VALID,0.503,
2018-07-08, 00:54:06,VALID,916.243,VALID,0.0,VALID,98.916,VALID,-0.014,VALID,19.225,VALID,124.0,VALID,0.354,
2018-07-08, 00:55:06,VALID,916.254,VALID,0.0,VALID,98.82,VALID,-0.018,VALID,19.173,VALID,123.0,VALID,0.083,
2018-07-08, 00:56:06,VALID,916.266,VALID,0.0,VALID,98.796,VALID,-0.02,VALID,19.104,VALID,115.0,VALID,0.163,
2018-07-08, 00:57:06,VALID,916.261,VALID,0.0,VALID,98.81,VALID,-0.031,VALID,19.089,VALID,81.0,VALID,0.39,
2018-07-08, 00:58:06,VALID,916.264,VALID,0.0,VALID,98.877,VALID,-0.022,VALID,19.147,VALID,79.0,VALID,0.486,
2018-07-08, 00:59:06,VALID,916.263,VALID,0.0,VALID,98.98,VALID,-0.006,VALID,19.284,VALID,77.0,VALID,0.474,
2018-07-08, 01:00:06,VALID,916.264,VALID,0.0,VALID,98.943,VALID,-0.024,VALID,19.318,VALID,79.0,VALID,0.557,
2018-07-08, 01:01:06,VALID,916.265,VALID,0.0,VALID,98.941,VALID,-0.01,VALID,19.354,VALID,84.0,VALID,0.666,
2018-07-08, 01:02:06,VALID,916.256,VALID,0.0,VALID,98.979,VALID,-0.024,VALID,19.387,VALID,83.0,VALID,0.625,
2018-07-08, 01:03:06,VALID,916.241,VALID,0.0,VALID,98.951,VALID,0.004,VALID,19.38,VALID,84.0,VALID,0.526,
2018-07-08, 01:04:06,VALID,916.227,VALID,0.0,VALID,98.974,VALID,-0.012,VALID,19.421,VALID,84.0,VALID,0.445,
2018-07-08, 01:05:06,VALID,916.209,VALID,0.0,VALID,98.965,VALID,-0.018,VALID,19.445,VALID,91.0,VALID,0.499,
2018-07-08, 01:06:06,VALID,916.178,VALID,0.0,VALID,98.962,VALID,-0.016,VALID,19.438,VALID,99.0,VALID,0.543,
2018-07-08, 01:07:06,VALID,916.154,VALID,0.0,VALID,98.923,VALID,-0.013,VALID,19.429,VALID,108.0,VALID,0.717,
2018-07-08, 01:08:06,VALID,916.135,VALID,0.0,VALID,98.945,VALID,-0.014,VALID,19.437,VALID,109.0,VALID,0.707,
2018-07-08, 01:09:06,VALID,916.126,VALID,0.0,VALID,98.915,VALID,-0.009,VALID,19.404,VALID,114.0,VALID,1.026,
2018-07-08, 01:10:06,VALID,916.109,VALID,0.0,VALID,98.936,VALID,-0.031,VALID,19.433,VALID,115.0,VALID,0.927,
2018-07-08, 01:11:06,VALID,916.104,VALID,0.0,VALID,98.93,VALID,-0.022,VALID,19.421,VALID,119.0,VALID,1.298,
2018-07-08, 01:12:06,VALID,916.085,VALID,0.0,VALID,98.888,VALID,-0.028,VALID,19.372,VALID,115.0,VALID,1.205,
2018-07-08, 01:13:06,VALID,916.06,VALID,0.0,VALID,98.858,VALID,-0.025,VALID,19.324,VALID,115.0,VALID,1.28,
2018-07-08, 01:14:06,VALID,916.045,VALID,0.0,VALID,98.892,VALID,-0.016,VALID,19.316,VALID,118.0,VALID,1.176,
2018-07-08, 01:15:06,VALID,916.019,VALID,0.0,VALID,98.901,VALID,-0.028,VALID,19.285,VALID,120.0,VALID,1.167,
2018-07-08, 01:16:06,VALID,916.011,VALID,0.0,VALID,98.908,VALID,-0.024,VALID,19.29,VALID,115.0,VALID,1.212,
2018-07-08, 01:17:06,VALID,915.995,VALID,0.0,VALID,98.939,VALID,-0.017,VALID,19.332,VALID,114.0,VALID,1.132,
2018-07-08, 01:18:06,VALID,915.987,VALID,0.0,VALID,98.935,VALID,-0.024,VALID,19.319,VALID,116.0,VALID,1.089,
2018-07-08, 01:19:06,VALID,915.977,VALID,0.0,VALID,98.929,VALID,-0.015,VALID,19.314,VALID,111.0,VALID,0.893,
2018-07-08, 01:20:06,VALID,915.966,VALID,0.0,VALID,98.93,VALID,0.002,VALID,19.297,VALID,108.0,VALID,0.887,
2018-07-08, 01:21:06,VALID,915.947,VALID,0.0,VALID,98.923,VALID,-0.029,VALID,19.27,VALID,118.0,VALID,1.001,
2018-07-08, 01:22:06,VALID,915.924,VALID,0.0,VALID,98.927,VALID,-0.016,VALID,19.247,VALID,118.0,VALID,1.059,
2018-07-08, 01:23:06,VALID,915.906,VALID,0.0,VALID,98.947,VALID,-0.035,VALID,19.248,VALID,119.0,VALID,1.032,
2018-07-08, 01:24:06,VALID,915.881,VALID,0.0,VALID,98.967,VALID,-0.046,VALID,19.26,VALID,119.0,VALID,1.199,
2018-07-08, 01:25:06,VALID,915.862,VALID,0.0,VALID,98.981,VALID,-0.032,VALID,19.282,VALID,112.0,VALID,0.939,
2018-07-08, 01:26:06,VALID,915.851,VALID,0.0,VALID,98.972,VALID,-0.031,VALID,19.274,VALID,111.0,VALID,0.778,
2018-07-08, 01:27:06,VALID,915.849,VALID,0.0,VALID,99.002,VALID,-0.03,VALID,19.296,VALID,110.0,VALID,0.712,
2018-07-08, 01:28:06,VALID,915.815,VALID,0.0,VALID,99.017,VALID,-0.012,VALID,19.336,VALID,105.0,VALID,0.638,
2018-07-08, 01:29:06,VALID,915.79,VALID,0.0,VALID,99.032,VALID,-0.025,VALID,19.372,VALID,105.0,VALID,0.522,
2018-07-08, 01:30:06,VALID,915.755,VALID,0.0,VALID,99.032,VALID,-0.019,VALID,19.375,VALID,105.0,VALID,0.452,
2018-07-08, 01:31:06,VALID,915.722,VALID,0.0,VALID,99.03,VALID,-0.028,VALID,19.391,VALID,104.0,VALID,0.567,
2018-07-08, 01:32:06,VALID,915.687,VALID,0.0,VALID,99.038,VALID,-0.028,VALID,19.399,VALID,110.0,VALID,0.73,
2018-07-08, 01:33:06,VALID,915.649,VALID,0.0,VALID,99.036,VALID,-0.023,VALID,19.402,VALID,113.0,VALID,0.737,
2018-07-08, 01:34:06,VALID,915.629,VALID,0.0,VALID,99.039,VALID,-0.022,VALID,19.399,VALID,122.0,VALID,0.902,
2018-07-08, 01:35:06,VALID,915.607,VALID,0.0,VALID,99.035,VALID,-0.013,VALID,19.409,VALID,126.0,VALID,0.934,
2018-07-08, 01:36:06,VALID,915.589,VALID,0.0,VALID,99.031,VALID,0.006,VALID,19.433,VALID,124.0,VALID,1.339,
2018-07-08, 01:37:06,VALID,915.571,VALID,0.0,VALID,99.053,VALID,-0.009,VALID,19.463,VALID,126.0,VALID,1.595,
2018-07-08, 01:38:06,VALID,915.535,VALID,0.0,VALID,99.066,VALID,-0.026,VALID,19.474,VALID,131.0,VALID,1.643,
2018-07-08, 01:39:06,VALID,915.511,VALID,0.0,VALID,99.03,VALID,-0.026,VALID,19.464,VALID,133.0,VALID,1.588,
2018-07-08, 01:40:06,VALID,915.476,VALID,0.0,VALID,99.017,VALID,-0.03,VALID,19.421,VALID,128.0,VALID,1.682,
2018-07-08, 01:41:06,VALID,915.45,VALID,0.0,VALID,98.989,VALID,-0.006,VALID,19.363,VALID,129.0,VALID,1.595,
2018-07-08, 01:42:06,VALID,915.435,VALID,0.0,VALID,98.995,VALID,-0.011,VALID,19.35,VALID,134.0,VALID,1.271,
2018-07-08, 01:43:06,VALID,915.425,VALID,0.0,VALID,99.005,VALID,-0.003,VALID,19.335,VALID,131.0,VALID,1.899,
2018-07-08, 01:44:06,VALID,915.411,VALID,0.0,VALID,99.019,VALID,-0.015,VALID,19.318,VALID,133.0,VALID,1.778,
2018-07-08, 01:45:06,VALID,915.393,VALID,0.0,VALID,99.027,VALID,-0.002,VALID,19.323,VALID,132.0,VALID,1.86,
2018-07-08, 01:46:06,VALID,915.381,VALID,0.0,VALID,99.035,VALID,-0.021,VALID,19.324,VALID,133.0,VALID,1.659,
2018-07-08, 01:47:06,VALID,915.373,VALID,0.0,VALID,99.022,VALID,-0.012,VALID,19.321,VALID,132.0,VALID,1.802,
2018-07-08, 01:48:06,VALID,915.379,VALID,0.0,VALID,99.036,VALID,0.002,VALID,19.335,VALID,127.0,VALID,1.988,
2018-07-08, 01:49:06,VALID,915.362,VALID,0.0,VALID,99.062,VALID,-0.018,VALID,19.339,VALID,132.0,VALID,1.721,
2018-07-08, 01:50:06,VALID,915.358,VALID,0.0,VALID,99.043,VALID,0.002,VALID,19.338,VALID,127.0,VALID,1.995,
2018-07-08, 01:51:06,VALID,915.347,VALID,0.0,VALID,99.063,VALID,0.001,VALID,19.372,VALID,130.0,VALID,1.76,
2018-07-08, 01:52:06,VALID,915.327,VALID,0.0,VALID,99.056,VALID,-0.01,VALID,19.358,VALID,124.0,VALID,2.207,
2018-07-08, 01:53:06,VALID,915.326,VALID,0.0,VALID,99.083,VALID,0.001,VALID,19.371,VALID,121.0,VALID,1.923,
2018-07-08, 01:54:06,VALID,915.323,VALID,0.0,VALID,99.076,VALID,-0.004,VALID,19.399,VALID,128.0,VALID,1.975,
2018-07-08, 01:55:06,VALID,915.313,VALID,0.0,VALID,99.071,VALID,-0.003,VALID,19.387,VALID,130.0,VALID,1.427,
2018-07-08, 01:56:06,VALID,915.318,VALID,0.0,VALID,99.07,VALID,0.004,VALID,19.384,VALID,131.0,VALID,1.285,
2018-07-08, 01:57:06,VALID,915.32,VALID,0.0,VALID,99.086,VALID,-0.005,VALID,19.407,VALID,140.0,VALID,1.381,
2018-07-08, 01:58:06,VALID,915.319,VALID,0.0,VALID,99.082,VALID,0.002,VALID,19.414,VALID,147.0,VALID,1.017,
2018-07-08, 01:59:06,VALID,915.323,VALID,0.0,VALID,99.063,VALID,-0.008,VALID,19.411,VALID,141.0,VALID,0.667,
2018-07-08, 02:00:06,VALID,915.311,VALID,0.0,VALID,99.079,VALID,-0.004,VALID,19.392,VALID,144.0,VALID,0.72,
2018-07-08, 02:01:06,VALID,915.285,VALID,0.0,VALID,99.065,VALID,0.003,VALID,19.369,VALID,148.0,VALID,1.225,
2018-07-08, 02:02:06,VALID,915.262,VALID,0.0,VALID,99.075,VALID,0.001,VALID,19.384,VALID,163.0,VALID,0.926,
2018-07-08, 02:03:06,VALID,915.242,VALID,0.0,VALID,99.059,VALID,-0.009,VALID,19.379,VALID,157.0,VALID,0.538,
2018-07-08, 02:04:06,VALID,915.208,VALID,0.0,VALID,99.066,VALID,0.018,VALID,19.371,VALID,153.0,VALID,0.326,
2018-07-08, 02:05:06,VALID,915.18,VALID,0.0,VALID,99.058,VALID,-0.02,VALID,19.364,VALID,137.0,VALID,0.832,
2018-07-08, 02:06:06,VALID,915.148,VALID,0.0,VALID,99.083,VALID,-0.022,VALID,19.382,VALID,146.0,VALID,1.203,
2018-07-08, 02:07:06,VALID,915.115,VALID,0.0,VALID,99.096,VALID,-0.037,VALID,19.397,VALID,146.0,VALID,1.329,
2018-07-08, 02:08:06,VALID,915.081,VALID,0.0,VALID,99.091,VALID,-0.001,VALID,19.402,VALID,133.0,VALID,1.535,
2018-07-08, 02:09:06,VALID,915.064,VALID,0.0,VALID,99.067,VALID,-0.022,VALID,19.361,VALID,129.0,VALID,1.918,
2018-07-08, 02:10:06,VALID,915.046,VALID,0.0,VALID,99.08,VALID,-0.021,VALID,19.36,VALID,141.0,VALID,1.147,
2018-07-08, 02:11:06,VALID,915.024,VALID,0.0,VALID,99.1,VALID,-0.011,VALID,19.366,VALID,134.0,VALID,1.241,
2018-07-08, 02:12:06,VALID,915.015,VALID,0.0,VALID,99.097,VALID,-0.014,VALID,19.372,VALID,131.0,VALID,1.19,
2018-07-08, 02:13:06,VALID,914.997,VALID,0.0,VALID,99.076,VALID,-0.014,VALID,19.362,VALID,130.0,VALID,1.446,
2018-07-08, 02:14:06,VALID,914.961,VALID,0.0,VALID,99.103,VALID,-0.034,VALID,19.39,VALID,128.0,VALID,1.843,
2018-07-08, 02:15:06,VALID,914.955,VALID,0.0,VALID,99.118,VALID,-0.019,VALID,19.416,VALID,125.0,VALID,1.756,
2018-07-08, 02:16:06,VALID,914.942,VALID,0.0,VALID,99.094,VALID,-0.006,VALID,19.404,VALID,131.0,VALID,1.925,
2018-07-08, 02:17:06,VALID,914.93,VALID,0.0,VALID,99.123,VALID,-0.023,VALID,19.465,VALID,134.0,VALID,1.817,
2018-07-08, 02:18:06,VALID,914.917,VALID,0.0,VALID,99.108,VALID,-0.002,VALID,19.462,VALID,133.0,VALID,1.846,
2018-07-08, 02:19:06,VALID,914.912,VALID,0.0,VALID,99.118,VALID,0.007,VALID,19.483,VALID,134.0,VALID,1.971,
2018-07-08, 02:20:06,VALID,914.907,VALID,0.0,VALID,99.11,VALID,0.004,VALID,19.478,VALID,136.0,VALID,1.489,
2018-07-08, 02:21:06,VALID,914.906,VALID,0.0,VALID,99.092,VALID,-0.02,VALID,19.453,VALID,128.0,VALID,1.54,
2018-07-08, 02:22:06,VALID,914.907,VALID,0.0,VALID,99.086,VALID,-0.005,VALID,19.448,VALID,131.0,VALID,1.879,
2018-07-08, 02:23:06,VALID,914.899,VALID,0.0,VALID,99.116,VALID,0.005,VALID,19.446,VALID,124.0,VALID,1.667,
2018-07-08, 02:24:06,VALID,914.907,VALID,0.0,VALID,99.109,VALID,-0.005,VALID,19.456,VALID,130.0,VALID,1.731,
2018-07-08, 02:25:06,VALID,914.912,VALID,0.0,VALID,99.114,VALID,0.013,VALID,19.481,VALID,118.0,VALID,2.068,
2018-07-08, 02:26:06,VALID,914.887,VALID,0.0,VALID,99.105,VALID,0.011,VALID,19.474,VALID,117.0,VALID,1.697,
2018-07-08, 02:27:06,VALID,914.864,VALID,0.0,VALID,99.094,VALID,-0.011,VALID,19.448,VALID,124.0,VALID,1.663,
2018-07-08, 02:28:06,VALID,914.837,VALID,0.0,VALID,99.103,VALID,-0.012,VALID,19.441,VALID,122.0,VALID,1.85,
2018-07-08, 02:29:06,VALID,914.819,VALID,0.0,VALID,99.1,VALID,-0.013,VALID,19.472,VALID,126.0,VALID,2.124,
2018-07-08, 02:30:06,VALID,914.798,VALID,0.0,VALID,99.117,VALID,-0.003,VALID,19.504,VALID,127.0,VALID,2.098,
2018-07-08, 02:31:06,VALID,914.772,VALID,0.0,VALID,99.11,VALID,0.009,VALID,19.507,VALID,133.0,VALID,1.952,
2018-07-08, 02:32:06,VALID,914.76,VALID,0.0,VALID,99.092,VALID,0.006,VALID,19.525,VALID,130.0,VALID,1.906,
2018-07-08, 02:33:06,VALID,914.751,VALID,0.0,VALID,99.068,VALID,-0.003,VALID,19.536,VALID,129.0,VALID,2.075,
2018-07-08, 02:34:06,VALID,914.729,VALID,0.0,VALID,99.07,VALID,0.001,VALID,19.528,VALID,136.0,VALID,1.854,
2018-07-08, 02:35:06,VALID,914.706,VALID,0.0,VALID,99.03,VALID,0.003,VALID,19.535,VALID,136.0,VALID,1.555,
2018-07-08, 02:36:06,VALID,914.712,VALID,0.0,VALID,99.038,VALID,0.02,VALID,19.552,VALID,130.0,VALID,1.914,
2018-07-08, 02:37:06,VALID,914.706,VALID,0.0,VALID,99.037,VALID,0.008,VALID,19.583,VALID,131.0,VALID,1.896,
2018-07-08, 02:38:06,VALID,914.71,VALID,0.0,VALID,99.011,VALID,0.042,VALID,19.587,VALID,126.0,VALID,1.991,
2018-07-08, 02:39:06,VALID,914.714,VALID,0.0,VALID,98.956,VALID,0.016,VALID,19.587,VALID,129.0,VALID,1.871,
2018-07-08, 02:40:06,VALID,914.726,VALID,0.0,VALID,98.942,VALID,0.021,VALID,19.6,VALID,154.0,VALID,1.153,
2018-07-08, 02:41:06,VALID,914.759,VALID,0.0,VALID,98.915,VALID,0.025,VALID,19.614,VALID,127.0,VALID,1.542,
2018-07-08, 02:42:06,VALID,914.763,VALID,0.0,VALID,98.857,VALID,0.024,VALID,19.616,VALID,133.0,VALID,1.086,
2018-07-08, 02:43:06,VALID,914.781,VALID,0.0,VALID,98.829,VALID,0.018,VALID,19.623,VALID,121.0,VALID,1.282,
2018-07-08, 02:44:06,VALID,914.772,VALID,0.0,VALID,98.773,VALID,0.008,VALID,19.608,VALID,31.0,VALID,0.55,
2018-07-08, 02:45:06,VALID,914.769,VALID,0.0,VALID,98.688,VALID,0.016,VALID,19.558,VALID,343.0,VALID,0.588,
2018-07-08, 02:46:06,VALID,914.745,VALID,0.0,VALID,98.563,VALID,0.005,VALID,19.474,VALID,354.0,VALID,0.607,
2018-07-08, 02:47:06,VALID,914.721,VALID,0.0,VALID,98.525,VALID,0.005,VALID,19.414,VALID,17.0,VALID,0.523,
2018-07-08, 02:48:06,VALID,914.708,VALID,0.0,VALID,98.542,VALID,0.012,VALID,19.383,VALID,7.0,VALID,0.304,
2018-07-08, 02:49:06,VALID,914.682,VALID,0.0,VALID,98.613,VALID,-0.002,VALID,19.381,VALID,14.0,VALID,0.229,
2018-07-08, 02:50:06,VALID,914.652,VALID,0.0,VALID,98.604,VALID,0.016,VALID,19.353,VALID,10.0,VALID,0.133,
2018-07-08, 02:51:06,VALID,914.62,VALID,0.0,VALID,98.601,VALID,0.022,VALID,19.321,VALID,359.0,VALID,0.207,
2018-07-08, 02:52:06,VALID,914.603,VALID,0.0,VALID,98.629,VALID,0.015,VALID,19.3,VALID,354.0,VALID,0.175,
2018-07-08, 02:53:06,VALID,914.565,VALID,0.0,VALID,98.65,VALID,0.031,VALID,19.287,VALID,56.0,VALID,0.808,
2018-07-08, 02:54:06,VALID,914.543,VALID,0.0,VALID,98.699,VALID,0.02,VALID,19.31,VALID,106.0,VALID,1.011,
2018-07-08, 02:55:06,VALID,914.502,VALID,0.0,VALID,98.759,VALID,0.033,VALID,19.358,VALID,98.0,VALID,1.401,
2018-07-08, 02:56:06,VALID,914.49,VALID,0.0,VALID,98.83,VALID,0.043,VALID,19.431,VALID,106.0,VALID,1.598,
2018-07-08, 02:57:06,VALID,914.47,VALID,0.0,VALID,98.817,VALID,0.009,VALID,19.454,VALID,114.0,VALID,2.088,
2018-07-08, 02:58:06,VALID,914.47,VALID,0.0,VALID,98.861,VALID,0.025,VALID,19.508,VALID,103.0,VALID,2.217,
2018-07-08, 02:59:06,VALID,914.474,VALID,0.0,VALID,98.815,VALID,0.036,VALID,19.521,VALID,103.0,VALID,1.832,
2018-07-08, 03:00:06,VALID,914.473,VALID,0.0,VALID,98.809,VALID,0.031,VALID,19.517,VALID,103.0,VALID,1.446,
2018-07-08, 03:01:06,VALID,914.477,VALID,0.0,VALID,98.758,VALID,0.044,VALID,19.503,VALID,97.0,VALID,2.096,
2018-07-08, 03:02:06,VALID,914.482,VALID,0.0,VALID,98.801,VALID,0.037,VALID,19.52,VALID,92.0,VALID,1.835,
2018-07-08, 03:03:06,VALID,914.461,VALID,0.0,VALID,98.773,VALID,0.04,VALID,19.508,VALID,94.0,VALID,1.848,
2018-07-08, 03:04:06,VALID,914.436,VALID,0.0,VALID,98.803,VALID,0.041,VALID,19.511,VALID,84.0,VALID,2.105,
2018-07-08, 03:05:06,VALID,914.415,VALID,0.0,VALID,98.787,VALID,0.006,VALID,19.508,VALID,99.0,VALID,1.696,
2018-07-08, 03:06:06,VALID,914.397,VALID,0.0,VALID,98.818,VALID,0.016,VALID,19.554,VALID,101.0,VALID,2.648,
2018-07-08, 03:07:06,VALID,914.379,VALID,0.0,VALID,98.824,VALID,-0.003,VALID,19.596,VALID,100.0,VALID,2.286,
2018-07-08, 03:08:06,VALID,914.387,VALID,0.0,VALID,98.718,VALID,0.019,VALID,19.564,VALID,120.0,VALID,1.872,
2018-07-08, 03:09:06,VALID,914.385,VALID,0.0,VALID,98.642,VALID,0.019,VALID,19.516,VALID,127.0,VALID,1.651,
2018-07-08, 03:10:06,VALID,914.401,VALID,0.0,VALID,98.66,VALID,0.015,VALID,19.526,VALID,124.0,VALID,1.681,
2018-07-08, 03:11:06,VALID,914.391,VALID,0.0,VALID,98.67,VALID,0.004,VALID,19.547,VALID,122.0,VALID,1.879,
2018-07-08, 03:12:06,VALID,914.385,VALID,0.0,VALID,98.649,VALID,0.015,VALID,19.55,VALID,133.0,VALID,2.123,
2018-07-08, 03:13:06,VALID,914.368,VALID,0.0,VALID,98.711,VALID,0.005,VALID,19.582,VALID,130.0,VALID,2.048,
2018-07-08, 03:14:06,VALID,914.342,VALID,0.0,VALID,98.665,VALID,-0.005,VALID,19.583,VALID,140.0,VALID,1.046,
2018-07-08, 03:15:06,VALID,914.325,VALID,0.0,VALID,98.671,VALID,0.02,VALID,19.574,VALID,134.0,VALID,1.768,
2018-07-08, 03:16:06,VALID,914.313,VALID,0.0,VALID,98.687,VALID,-0.015,VALID,19.578,VALID,123.0,VALID,2.355,
2018-07-08, 03:17:06,VALID,914.291,VALID,0.0,VALID,98.694,VALID,0.009,VALID,19.574,VALID,120.0,VALID,2.382,
2018-07-08, 03:18:06,VALID,914.287,VALID,0.0,VALID,98.684,VALID,0.015,VALID,19.557,VALID,109.0,VALID,2.23,
2018-07-08, 03:19:06,VALID,914.275,VALID,0.0,VALID,98.69,VALID,0.0,VALID,19.558,VALID,104.0,VALID,2.225,
2018-07-08, 03:20:06,VALID,914.273,VALID,0.0,VALID,98.655,VALID,0.01,VALID,19.537,VALID,101.0,VALID,1.9,
2018-07-08, 03:21:06,VALID,914.271,VALID,0.0,VALID,98.685,VALID,-0.012,VALID,19.554,VALID,96.0,VALID,2.029,
2018-07-08, 03:22:06,VALID,914.261,VALID,0.0,VALID,98.644,VALID,-0.007,VALID,19.554,VALID,101.0,VALID,1.879,
2018-07-08, 03:23:06,VALID,914.256,VALID,0.0,VALID,98.595,VALID,-0.015,VALID,19.529,VALID,95.0,VALID,1.617,
2018-07-08, 03:24:06,VALID,914.273,VALID,0.0,VALID,98.535,VALID,-0.011,VALID,19.483,VALID,95.0,VALID,1.497,
2018-07-08, 03:25:06,VALID,914.294,VALID,0.0,VALID,98.573,VALID,0.002,VALID,19.474,VALID,96.0,VALID,1.773,
2018-07-08, 03:26:06,VALID,914.323,VALID,0.0,VALID,98.585,VALID,-0.018,VALID,19.461,VALID,94.0,VALID,1.182,
2018-07-08, 03:27:06,VALID,914.359,VALID,0.0,VALID,98.595,VALID,-0.007,VALID,19.447,VALID,87.0,VALID,1.409,
2018-07-08, 03:28:06,VALID,914.371,VALID,0.0,VALID,98.639,VALID,-0.009,VALID,19.442,VALID,105.0,VALID,1.211,
2018-07-08, 03:29:06,VALID,914.382,VALID,0.0,VALID,98.632,VALID,-0.001,VALID,19.432,VALID,111.0,VALID,1.677,
2018-07-08, 03:30:06,VALID,914.385,VALID,0.0,VALID,98.673,VALID,0.003,VALID,19.439,VALID,119.0,VALID,1.912,
2018-07-08, 03:31:06,VALID,914.372,VALID,0.0,VALID,98.67,VALID,0.001,VALID,19.419,VALID,129.0,VALID,1.578,
2018-07-08, 03:32:06,VALID,914.376,VALID,0.0,VALID,98.666,VALID,-0.013,VALID,19.411,VALID,131.0,VALID,1.457,
2018-07-08, 03:33:06,VALID,914.382,VALID,0.0,VALID,98.696,VALID,0.013,VALID,19.419,VALID,160.0,VALID,0.902,
2018-07-08, 03:34:06,VALID,914.407,VALID,0.0,VALID,98.702,VALID,0.007,VALID,19.437,VALID,138.0,VALID,1.372,
2018-07-08, 03:35:06,VALID,914.434,VALID,0.0,VALID,98.73,VALID,0.002,VALID,19.442,VALID,139.0,VALID,0.832,
2018-07-08, 03:36:06,VALID,914.459,VALID,0.0,VALID,98.708,VALID,0.017,VALID,19.426,VALID,144.0,VALID,1.085,
2018-07-08, 03:37:06,VALID,914.476,VALID,0.0,VALID,98.754,VALID,0.031,VALID,19.431,VALID,132.0,VALID,1.453,
2018-07-08, 03:38:06,VALID,914.477,VALID,0.0,VALID,98.74,VALID,0.013,VALID,19.431,VALID,142.0,VALID,1.375,